Weather History for KMRN - December, 2012

Change the Weather History Date:

Tuesday, December 18, 2012

  Actual Average Record
Temperature  
Mean Temperature 42 °F -  
Max Temperature 55 °F - - ()
Min Temperature 30 °F - - ()
Degree Days  
Heating Degree Days 22    
Moisture  
Dew Point 35 °F    
Average Humidity 69    
Maximum Humidity 100    
Minimum Humidity 32    
Precipitation  
Precipitation 0.01 in - - ()
Sea Level Pressure  
Sea Level Pressure 29.84 in    
Wind  
Wind Speed 4 mph (WSW)    
Max Wind Speed 14 mph    
Max Gust Speed 23 mph    
Visibility 10 miles    
Events      
T = Trace of Precipitation, MM = Missing Value Source: NWS Daily Summary

Daily Weather History Graph

Daily Weather History Graph

Search for Another Location

Airport or City:

Trip Planner

Search our weather history database for the weather conditions in past years. The results will help you decide how hot, cold, wet, or windy it might be!

Date:

Astronomy

Dec. 18, 2012 Rise Set
Actual Time 7:31 AM EST 5:15 PM EST
Civil Twilight 7:02 AM EST 5:43 PM EST
Nautical Twilight 6:30 AM EST 6:15 PM EST
Astronomical Twilight 5:59 AM EST 6:47 PM EST
Moon 11:20 AM EST (12/18) 11:28 PM EST (12/18)
Length of Visible Light 10h 41m
Length of Day
9h 43m
Waxing Crescent, 34% of the Moon is Illuminated
Dec 18
Waxing Crescent
Dec 20
First Quarter
Dec 28
Full
Jan 4
Last Quarter
Jan 11
New

Hourly Weather History & Observations

Time (EST) Temp. Windchill Dew Point Humidity Pressure Visibility Wind Dir Wind Speed Gust Speed Precip Events Conditions
12:15 AM 52.3 °F - 51.3 °F 96% 29.73 in 10.0 mi SW 3.5 mph - N/A   Overcast
12:35 AM 52.0 °F - 51.1 °F 97% 29.73 in 10.0 mi Calm Calm - N/A   Overcast
12:55 AM 51.3 °F - 50.7 °F 98% 29.72 in 10.0 mi Calm Calm - N/A   Overcast
1:15 AM 50.7 °F - 50.4 °F 99% 29.71 in 10.0 mi SSE 3.5 mph - N/A   Overcast
1:35 AM 50.9 °F - 50.5 °F 99% 29.72 in 10.0 mi Calm Calm - N/A   Overcast
1:55 AM 50.5 °F - 49.6 °F 97% 29.72 in 10.0 mi Calm Calm - N/A   Overcast
2:15 AM 50.0 °F - 49.1 °F 97% 29.72 in 10.0 mi Calm Calm - N/A   Overcast
2:35 AM 48.2 °F - 48.0 °F 99% 29.72 in 10.0 mi Calm Calm - N/A   Overcast
2:55 AM 48.6 °F - 48.6 °F 100% 29.72 in 10.0 mi West 4.6 mph - N/A   Scattered Clouds
3:15 AM 49.5 °F - 48.6 °F 97% 29.71 in 10.0 mi Calm Calm - N/A   Clear
3:35 AM 44.8 °F - 44.4 °F 99% 29.71 in 5.0 mi Calm Calm - N/A   Clear
3:55 AM 43.3 °F - 43.3 °F 100% 29.71 in 5.0 mi Calm Calm - N/A   Mostly Cloudy
4:15 AM 45.3 °F - 45.3 °F 100% 29.70 in 7.0 mi Calm Calm - N/A   Overcast
4:35 AM 48.0 °F - 48.0 °F 100% 29.70 in 10.0 mi Calm Calm - N/A   Overcast
4:55 AM 48.2 °F - 48.2 °F 100% 29.71 in 10.0 mi WSW 3.5 mph - N/A   Overcast
5:15 AM 48.7 °F - 48.6 °F 99% 29.72 in 10.0 mi Calm Calm - N/A   Overcast
5:35 AM 49.3 °F - 48.2 °F 96% 29.73 in 10.0 mi West 3.5 mph - N/A   Overcast
5:55 AM 48.6 °F - 47.5 °F 96% 29.73 in 10.0 mi Calm Calm - N/A   Overcast
6:15 AM 48.0 °F - 47.3 °F 97% 29.74 in 10.0 mi WSW 3.5 mph - N/A   Overcast
6:35 AM 48.4 °F - 46.9 °F 95% 29.74 in 10.0 mi WSW 3.5 mph - N/A   Overcast
6:55 AM 48.4 °F - 45.7 °F 90% 29.75 in 10.0 mi Calm Calm - N/A   Overcast
7:15 AM 45.0 °F - 43.9 °F 96% 29.75 in 10.0 mi Calm Calm - N/A   Scattered Clouds
7:35 AM 45.3 °F 40.6 °F 45.3 °F 100% 29.76 in 7.0 mi WNW 9.2 mph - N/A   Clear
7:55 AM 48.7 °F - 38.1 °F 67% 29.76 in 10.0 mi West 10.4 mph - N/A   Scattered Clouds
8:15 AM 49.6 °F - 36.3 °F 60% 29.77 in 10.0 mi West 10.4 mph 16.1 mph N/A   Clear
8:35 AM 51.3 °F - 34.3 °F 52% 29.79 in 10.0 mi West 9.2 mph 23.0 mph 0.01 in   Scattered Clouds
8:55 AM 51.8 °F - 34.5 °F 52% 29.81 in 10.0 mi WSW 6.9 mph - 0.01 in   Scattered Clouds
9:15 AM 51.4 °F - 34.0 °F 51% 29.81 in 10.0 mi West 9.2 mph - N/A   Scattered Clouds
9:35 AM 51.8 °F - 32.2 °F 47% 29.81 in 10.0 mi West 11.5 mph 19.6 mph N/A   Scattered Clouds
9:55 AM 52.7 °F - 32.7 °F 47% 29.82 in 10.0 mi WSW 9.2 mph - N/A   Mostly Cloudy
10:15 AM 53.2 °F - 32.2 °F 45% 29.82 in 10.0 mi NNW 9.2 mph - N/A   Overcast
10:35 AM 53.1 °F - 32.4 °F 45% 29.83 in 10.0 mi NW 6.9 mph - N/A   Overcast
10:55 AM 53.2 °F - 32.0 °F 44% 29.83 in 10.0 mi NW 11.5 mph 17.3 mph N/A   Scattered Clouds
11:15 AM 52.7 °F - 31.6 °F 45% 29.83 in 10.0 mi NNW 8.1 mph - N/A   Clear
11:35 AM 52.3 °F - 31.5 °F 45% 29.85 in 10.0 mi NNW 9.2 mph - N/A   Scattered Clouds
12:15 PM 52.7 °F - 30.0 °F 42% 29.85 in 10.0 mi NW 12.7 mph - N/A   Clear
12:35 PM 54.1 °F - 29.7 °F 39% 29.86 in 10.0 mi NW 13.8 mph 19.6 mph N/A   Clear
12:55 PM 54.7 °F - 30.2 °F 39% 29.85 in 10.0 mi WNW 10.4 mph 20.7 mph N/A   Scattered Clouds
1:15 PM 54.1 °F - 30.6 °F 41% 29.85 in 10.0 mi West 12.7 mph 20.7 mph N/A   Clear
1:35 PM 54.0 °F - 30.4 °F 41% 29.85 in 10.0 mi WSW 10.4 mph 18.4 mph N/A   Clear
1:55 PM 54.7 °F - 30.6 °F 40% 29.86 in 10.0 mi WSW 11.5 mph 17.3 mph N/A   Clear
2:15 PM 54.7 °F - 29.7 °F 38% 29.86 in 10.0 mi West 5.8 mph - N/A   Clear
2:35 PM 55.4 °F - 27.7 °F 35% 29.86 in 10.0 mi West 9.2 mph - N/A   Clear
2:55 PM 55.4 °F - 26.6 °F 33% 29.87 in 10.0 mi West 6.9 mph - N/A   Clear
3:15 PM 54.7 °F - 26.2 °F 33% 29.88 in 10.0 mi West 5.8 mph - N/A   Clear
3:35 PM 54.5 °F - 25.5 °F 33% 29.88 in 10.0 mi SW 8.1 mph - N/A   Clear
3:55 PM 54.5 °F - 24.8 °F 32% 29.88 in 10.0 mi SW 5.8 mph - N/A   Clear
4:15 PM 54.5 °F - 25.2 °F 32% 29.89 in 10.0 mi SSW 4.6 mph - N/A   Clear
4:35 PM 53.8 °F - 27.1 °F 36% 29.90 in 10.0 mi SSW 3.5 mph - N/A   Clear
4:55 PM 51.8 °F - 28.4 °F 41% 29.91 in 10.0 mi South 3.5 mph - N/A   Clear
5:15 PM 50.0 °F - 26.8 °F 41% 29.92 in 10.0 mi SW 5.8 mph - N/A   Clear
5:35 PM 49.5 °F - 25.2 °F 39% 29.91 in 10.0 mi SW 5.8 mph - N/A   Clear
5:55 PM 48.4 °F - 25.2 °F 40% 29.92 in 10.0 mi SW 6.9 mph - N/A   Clear
6:15 PM 46.9 °F - 25.5 °F 43% 29.93 in 10.0 mi WSW 4.6 mph - N/A   Clear
6:35 PM 47.3 °F - 25.3 °F 42% 29.93 in 10.0 mi Calm Calm - N/A   Clear
6:55 PM 38.7 °F - 30.7 °F 73% 29.95 in 10.0 mi Calm Calm - N/A   Clear
7:15 PM 36.1 °F - 30.7 °F 81% 29.95 in 10.0 mi Calm Calm - N/A   Clear
7:35 PM 35.2 °F 32.4 °F 30.7 °F 84% 29.96 in 10.0 mi SSW 3.5 mph - N/A   Clear
7:55 PM 37.9 °F 35.5 °F 29.1 °F 71% 29.96 in 10.0 mi SSW 3.5 mph - N/A   Clear
8:15 PM 33.1 °F - 29.1 °F 85% 29.96 in 10.0 mi Calm Calm - N/A   Clear
8:35 PM 34.3 °F - 29.5 °F 82% 29.95 in 10.0 mi Calm Calm - N/A   Clear
8:55 PM 36.1 °F - 28.9 °F 75% 29.95 in 10.0 mi Calm Calm - N/A   Clear
9:15 PM 32.9 °F - 29.8 °F 88% 29.95 in 10.0 mi Calm Calm - N/A   Clear
9:35 PM 34.0 °F 31.0 °F 28.8 °F 81% 29.95 in 10.0 mi SW 3.5 mph - N/A   Clear
9:55 PM 32.0 °F - 29.5 °F 90% 29.95 in 10.0 mi Calm Calm - N/A   Clear
10:15 PM 32.2 °F - 30.0 °F 92% 29.95 in 10.0 mi Calm Calm - N/A   Clear
10:35 PM 30.9 °F - 28.4 °F 90% 29.96 in 10.0 mi Calm Calm - N/A   Clear
10:55 PM 31.8 °F - 28.2 °F 87% 29.96 in 10.0 mi Calm Calm - N/A   Clear
11:15 PM 32.0 °F - 28.4 °F 87% 29.95 in 10.0 mi Calm Calm - N/A   Clear
11:35 PM 35.8 °F - 28.2 °F 74% 29.95 in 10.0 mi Calm Calm - N/A   Clear
11:55 PM 32.5 °F - 27.3 °F 81% 29.95 in 10.0 mi Calm Calm - N/A   Clear